Date,TemperatureHighF,TemperatureAvgF,TemperatureLowF,DewpointHighF,DewpointAvgF,DewpointLowF,HumidityHigh,HumidityAvg,HumidityLow,PressureMaxIn,PressureMinIn,WindSpeedMaxMPH,WindSpeedAvgMPH,GustSpeedMaxMPH,PrecipitationSumIn
2013-2-1,54.2,44.2,30.9,31.6,22.1,4.2,61,44,15,30.22,29.95,11,4,20,0.00
2013-2-2,54.2,39.6,26.1,41.0,27.2,10.2,92,62,44,30.25,29.92,5,1,10,0.00
2013-2-3,58.6,47.4,40.1,38.0,32.9,27.0,82,60,33,29.92,29.74,10,3,17,0.00
2013-2-4,49.8,40.9,29.4,36.1,31.1,26.8,93,70,44,30.00,29.86,3,1,7,0.00
2013-2-5,68.9,52.7,39.3,48.7,39.8,32.8,91,67,27,29.91,29.78,8,2,16,0.00
2013-2-6,71.8,56.1,45.8,49.5,45.0,38.0,95,70,31,30.06,29.86,5,1,11,0.00
2013-2-7,59.0,52.2,43.8,55.0,49.5,42.2,99,91,72,30.05,29.57,8,2,15,0.83
2013-2-8,63.1,55.1,48.2,55.7,48.0,44.5,99,78,55,29.89,29.50,8,4,15,0.10
2013-2-9,63.1,47.5,36.6,46.6,31.1,19.6,90,58,23,30.21,29.89,6,1,11,0.00
2013-2-10,61.2,47.4,32.7,53.7,40.8,30.9,96,80,50,30.29,30.08,8,2,16,0.00
2013-2-11,66.1,61.2,55.7,62.5,59.2,52.7,97,93,85,30.11,29.87,6,2,16,0.58
2013-2-12,63.4,57.1,49.8,58.6,54.2,47.9,100,91,66,29.97,29.78,4,1,11,0.61
2013-2-13,66.3,55.1,48.3,60.7,51.2,47.2,100,88,61,29.79,29.52,9,3,16,0.13
2013-2-14,54.7,48.6,41.1,48.5,39.8,34.8,92,73,50,29.93,29.67,5,1,9,0.00
2013-2-15,60.2,46.3,34.3,43.0,38.1,33.0,98,76,38,29.95,29.81,5,1,11,0.00
2013-2-16,54.1,41.4,32.8,43.3,37.8,30.2,96,88,61,29.81,29.64,12,2,16,0.14
2013-2-17,41.5,33.4,27.2,30.8,21.6,10.9,92,65,31,30.14,29.81,13,5,22,0.00
2013-2-18,53.9,38.1,24.8,31.6,26.0,19.4,92,66,27,30.29,30.13,5,1,12,0.00
2013-2-19,63.1,49.5,33.2,55.3,45.3,30.5,98,86,57,30.13,29.80,7,2,14,0.06
2013-2-20,56.7,47.3,35.0,47.9,34.5,19.7,95,65,27,30.00,29.86,5,1,10,0.00
2013-2-21,59.9,45.7,35.3,41.9,32.2,21.0,92,64,28,30.05,29.94,5,1,10,0.00
2013-2-22,51.7,47.6,42.6,49.9,43.6,30.9,98,86,60,30.10,29.91,8,3,17,0.09
2013-2-23,49.1,45.7,42.8,49.1,45.5,42.5,100,99,98,29.91,29.61,6,1,10,0.49
2013-2-24,67.8,52.4,45.7,50.3,46.9,35.8,100,85,34,29.86,29.61,5,2,11,0.01
2013-2-25,46.0,44.3,42.3,43.6,37.9,33.8,96,79,65,30.00,29.81,6,2,12,0.00
2013-2-26,70.9,58.7,43.1,66.6,56.3,40.9,100,92,78,29.88,29.43,10,4,21,0.87
2013-2-27,59.0,52.8,47.6,55.7,41.9,35.4,92,67,49,29.71,29.52,10,4,13,0.00
2013-2-28,58.0,50.1,41.1,41.3,35.6,29.6,86,60,35,29.72,29.59,10,4,18,0.00